Time,TemperatureF,DewpointF,PressureIn,WindDirection,WindDirectionDegrees,WindSpeedMPH,WindSpeedGustMPH,Humidity,HourlyPrecipIn,Conditions,Clouds,dailyrainin,SoftwareType,DateUTC
2013-05-25 00:01:00,52.6,52.6,29.79,NNE,18,0.0,6.0,100,0.03,,---,0.62,VWS V14.01,2013-05-25 04:01:00,
2013-05-25 00:06:00,52.3,52.3,29.79,NE,56,0.0,3.0,100,0.03,,---,0.00,VWS V14.01,2013-05-25 04:06:00,
2013-05-25 00:11:00,52.0,52.0,29.79,NE,47,3.0,11.0,100,0.03,,---,0.00,VWS V14.01,2013-05-25 04:11:00,
2013-05-25 00:16:00,51.9,51.9,29.79,ENE,64,0.0,5.0,100,0.03,,---,0.00,VWS V14.01,2013-05-25 04:16:00,
2013-05-25 00:21:00,51.9,51.9,29.79,NNE,21,0.0,5.0,100,0.03,,---,0.00,VWS V14.01,2013-05-25 04:21:00,
2013-05-25 00:26:00,52.0,52.0,29.78,WNW,297,0.0,3.0,100,0.02,,---,0.00,VWS V14.01,2013-05-25 04:26:00,
2013-05-25 00:31:00,51.7,51.7,29.78,ESE,118,0.0,7.0,100,0.02,,---,0.00,VWS V14.01,2013-05-25 04:31:00,
2013-05-25 00:36:00,51.4,51.4,29.78,NE,46,0.0,1.0,100,0.02,,---,0.00,VWS V14.01,2013-05-25 04:36:00,
2013-05-25 00:41:00,51.3,51.3,29.78,NE,42,0.0,10.0,100,0.02,,---,0.00,VWS V14.01,2013-05-25 04:41:00,
2013-05-25 00:46:00,51.3,51.3,29.78,SSW,213,0.0,4.0,100,0.02,,---,0.00,VWS V14.01,2013-05-25 04:46:00,
2013-05-25 00:51:00,51.1,51.1,29.78,ENE,59,0.0,7.0,100,0.03,,---,0.01,VWS V14.01,2013-05-25 04:51:00,
2013-05-25 00:56:00,51.1,51.1,29.78,SE,131,0.0,1.0,100,0.02,,---,0.01,VWS V14.01,2013-05-25 04:56:00,
2013-05-25 01:01:00,51.1,51.1,29.78,North,5,3.0,8.0,100,0.02,,---,0.01,VWS V14.01,2013-05-25 05:01:00,
2013-05-25 01:06:00,51.0,51.0,29.78,SE,136,0.0,2.0,100,0.01,,---,0.01,VWS V14.01,2013-05-25 05:06:00,
2013-05-25 01:11:00,51.0,51.0,29.78,ESE,113,1.0,3.0,100,0.01,,---,0.01,VWS V14.01,2013-05-25 05:11:00,
2013-05-25 01:16:00,51.0,51.0,29.77,ENE,63,0.0,1.0,100,0.01,,---,0.01,VWS V14.01,2013-05-25 05:16:00,
2013-05-25 01:21:00,51.0,51.0,29.76,NE,54,1.0,2.0,100,0.01,,---,0.01,VWS V14.01,2013-05-25 05:21:00,
2013-05-25 01:26:00,51.0,51.0,29.76,SW,215,0.0,2.0,100,0.01,,---,0.01,VWS V14.01,2013-05-25 05:26:00,
2013-05-25 01:31:00,50.8,50.8,29.77,NE,46,2.0,6.0,100,0.01,,---,0.01,VWS V14.01,2013-05-25 05:31:00,
2013-05-25 01:36:00,50.8,50.8,29.77,West,267,0.0,5.0,100,0.01,,---,0.01,VWS V14.01,2013-05-25 05:36:00,
2013-05-25 01:41:00,50.5,50.5,29.77,SSW,200,0.0,7.0,100,0.02,,---,0.02,VWS V14.01,2013-05-25 05:41:00,
2013-05-25 01:46:00,50.4,50.4,29.77,NW,306,3.0,5.0,100,0.02,,---,0.02,VWS V14.01,2013-05-25 05:46:00,
2013-05-25 01:51:00,50.2,50.2,29.77,SW,218,0.0,5.0,100,0.02,,---,0.02,VWS V14.01,2013-05-25 05:51:00,
2013-05-25 01:56:00,50.2,50.2,29.77,NNE,28,4.0,4.0,100,0.01,,---,0.02,VWS V14.01,2013-05-25 05:56:00,
2013-05-25 02:01:00,50.1,50.1,29.76,NNE,33,1.0,10.0,100,0.01,,---,0.02,VWS V14.01,2013-05-25 06:01:00,
2013-05-25 02:06:00,50.1,50.1,29.76,East,95,0.0,1.0,100,0.01,,---,0.02,VWS V14.01,2013-05-25 06:06:00,
2013-05-25 02:11:00,50.1,50.1,29.76,North,11,0.0,3.0,100,0.01,,---,0.02,VWS V14.01,2013-05-25 06:11:00,
2013-05-25 02:16:00,50.1,50.1,29.76,ENE,76,0.0,1.0,100,0.01,,---,0.02,VWS V14.01,2013-05-25 06:16:00,
2013-05-25 02:21:00,50.1,50.1,29.76,ENE,66,1.0,5.0,100,0.01,,---,0.02,VWS V14.01,2013-05-25 06:21:00,
2013-05-25 02:26:00,49.9,49.9,29.75,NNE,32,0.0,4.0,100,0.02,,---,0.03,VWS V14.01,2013-05-25 06:26:00,
2013-05-25 02:31:00,49.9,49.9,29.75,South,182,1.0,4.0,100,0.02,,---,0.03,VWS V14.01,2013-05-25 06:31:00,
2013-05-25 02:36:00,49.9,49.9,29.75,SSW,209,0.0,5.0,100,0.02,,---,0.03,VWS V14.01,2013-05-25 06:36:00,
2013-05-25 02:41:00,49.8,49.8,29.75,SE,144,2.0,5.0,100,0.02,,---,0.03,VWS V14.01,2013-05-25 06:41:00,
2013-05-25 02:46:00,49.8,49.8,29.75,SW,222,0.0,4.0,100,0.01,,---,0.03,VWS V14.01,2013-05-25 06:46:00,
2013-05-25 02:51:00,49.6,49.6,29.75,SE,135,1.0,6.0,100,0.01,,---,0.03,VWS V14.01,2013-05-25 06:51:00,
2013-05-25 02:56:00,49.6,49.6,29.75,SSE,167,0.0,0.0,100,0.01,,---,0.03,VWS V14.01,2013-05-25 06:56:00,
2013-05-25 03:01:00,49.6,49.6,29.75,NE,36,3.0,5.0,100,0.01,,---,0.03,VWS V14.01,2013-05-25 07:01:00,
2013-05-25 03:06:00,49.5,49.5,29.75,SW,217,0.0,5.0,100,0.02,,---,0.04,VWS V14.01,2013-05-25 07:06:00,
2013-05-25 03:11:00,49.5,49.5,29.75,North,5,0.0,5.0,100,0.02,,---,0.04,VWS V14.01,2013-05-25 07:11:00,
2013-05-25 03:16:00,49.6,49.6,29.75,West,261,0.0,2.0,100,0.02,,---,0.04,VWS V14.01,2013-05-25 07:16:00,
2013-05-25 03:21:00,49.6,49.6,29.75,NE,34,1.0,2.0,100,0.02,,---,0.04,VWS V14.01,2013-05-25 07:21:00,
2013-05-25 03:26:00,49.6,49.6,29.75,SSW,202,0.0,1.0,100,0.02,,---,0.04,VWS V14.01,2013-05-25 07:26:00,
2013-05-25 03:31:00,49.6,49.6,29.75,East,98,0.0,2.0,100,0.05,,---,0.07,VWS V14.01,2013-05-25 07:31:00,
2013-05-25 03:36:00,49.5,49.5,29.74,North,350,0.0,0.0,100,0.06,,---,0.09,VWS V14.01,2013-05-25 07:36:00,
2013-05-25 03:41:00,49.4,49.4,29.74,South,174,0.0,5.0,100,0.07,,---,0.10,VWS V14.01,2013-05-25 07:41:00,
2013-05-25 03:46:00,49.4,49.4,29.74,North,5,0.0,3.0,100,0.07,,---,0.10,VWS V14.01,2013-05-25 07:46:00,
2013-05-25 03:51:00,49.2,49.2,29.75,East,84,2.0,7.0,100,0.07,,---,0.10,VWS V14.01,2013-05-25 07:51:00,
2013-05-25 03:56:00,49.2,49.2,29.75,NNW,348,0.0,0.0,100,0.07,,---,0.10,VWS V14.01,2013-05-25 07:56:00,
2013-05-25 04:00:00,49.2,49.2,29.75,North,11,0.0,5.0,100,0.08,,---,0.11,VWS V14.01,2013-05-25 08:00:00,
2013-05-25 04:05:00,49.1,49.1,29.74,ESE,103,0.0,0.0,100,0.08,,---,0.12,VWS V14.01,2013-05-25 08:05:00,
2013-05-25 04:10:00,49.2,49.2,29.74,SSW,204,0.0,2.0,100,0.09,,---,0.13,VWS V14.01,2013-05-25 08:10:00,
2013-05-25 04:15:00,49.2,49.2,29.74,North,355,0.0,1.0,100,0.10,,---,0.14,VWS V14.01,2013-05-25 08:15:00,
2013-05-25 04:20:00,49.1,49.1,29.74,SSE,164,0.0,1.0,100,0.10,,---,0.14,VWS V14.01,2013-05-25 08:20:00,
2013-05-25 04:25:00,48.9,48.9,29.74,South,178,0.0,2.0,100,0.10,,---,0.14,VWS V14.01,2013-05-25 08:25:00,
2013-05-25 04:30:00,48.9,48.9,29.75,North,5,0.0,8.0,100,0.11,,---,0.15,VWS V14.01,2013-05-25 08:30:00,
2013-05-25 04:35:00,48.9,48.9,29.74,SSE,155,0.0,0.0,100,0.07,,---,0.15,VWS V14.01,2013-05-25 08:35:00,
2013-05-25 04:40:00,48.8,48.8,29.74,NW,318,1.0,8.0,100,0.07,,---,0.15,VWS V14.01,2013-05-25 08:40:00,
2013-05-25 04:45:00,48.8,48.8,29.74,NNE,22,2.0,2.0,100,0.05,,---,0.15,VWS V14.01,2013-05-25 08:45:00,
2013-05-25 04:50:00,48.6,48.6,29.74,West,273,0.0,3.0,100,0.05,,---,0.15,VWS V14.01,2013-05-25 08:50:00,
2013-05-25 04:55:00,48.6,48.6,29.74,North,11,0.0,4.0,100,0.05,,---,0.15,VWS V14.01,2013-05-25 08:55:00,
2013-05-25 05:00:00,48.5,48.5,29.74,NE,37,0.0,5.0,100,0.05,,---,0.15,VWS V14.01,2013-05-25 09:00:00,
2013-05-25 05:05:00,48.6,48.6,29.74,SSW,192,0.0,3.0,100,0.03,,---,0.15,VWS V14.01,2013-05-25 09:05:00,
2013-05-25 05:10:00,48.5,48.5,29.74,West,273,0.0,4.0,100,0.04,,---,0.16,VWS V14.01,2013-05-25 09:10:00,
2013-05-25 05:15:00,48.5,48.5,29.74,NE,38,1.0,2.0,100,0.03,,---,0.16,VWS V14.01,2013-05-25 09:15:00,
2013-05-25 05:20:00,48.2,48.2,29.73,East,80,0.0,11.0,100,0.03,,---,0.16,VWS V14.01,2013-05-25 09:20:00,
2013-05-25 05:25:00,48.5,48.5,29.73,NNE,28,0.0,5.0,100,0.02,,---,0.16,VWS V14.01,2013-05-25 09:25:00,
2013-05-25 05:30:00,48.2,48.2,29.72,NNE,32,0.0,5.0,100,0.02,,---,0.16,VWS V14.01,2013-05-25 09:30:00,
2013-05-25 05:35:00,48.2,48.2,29.72,NE,34,0.0,4.0,100,0.01,,---,0.16,VWS V14.01,2013-05-25 09:35:00,
2013-05-25 05:40:00,48.2,48.2,29.73,NE,44,0.0,4.0,100,0.01,,---,0.16,VWS V14.01,2013-05-25 09:40:00,
2013-05-25 05:45:00,48.3,48.3,29.73,NE,44,0.0,0.0,100,0.01,,---,0.16,VWS V14.01,2013-05-25 09:45:00,
2013-05-25 05:50:00,48.3,48.3,29.73,SW,229,0.0,3.0,100,0.01,,---,0.16,VWS V14.01,2013-05-25 09:50:00,
2013-05-25 05:55:00,48.5,48.5,29.73,ENE,75,0.0,1.0,100,0.01,,---,0.16,VWS V14.01,2013-05-25 09:55:00,
2013-05-25 06:00:00,48.5,48.5,29.73,ENE,75,0.0,1.0,100,0.01,,---,0.16,VWS V14.01,2013-05-25 10:00:00,
2013-05-25 06:05:00,48.5,48.5,29.74,SSW,196,0.0,0.0,100,0.01,,---,0.16,VWS V14.01,2013-05-25 10:05:00,
2013-05-25 06:10:00,48.6,48.6,29.74,SSW,211,0.0,6.0,100,0.01,,---,0.16,VWS V14.01,2013-05-25 10:10:00,
2013-05-25 06:15:00,48.6,48.6,29.74,ESE,115,0.0,2.0,100,0.00,,---,0.16,VWS V14.01,2013-05-25 10:15:00,
2013-05-25 06:20:00,48.6,48.6,29.74,ESE,115,0.0,2.0,100,0.01,,---,0.17,VWS V14.01,2013-05-25 10:20:00,
2013-05-25 06:25:00,48.6,48.6,29.74,SE,144,0.0,1.0,100,0.02,,---,0.18,VWS V14.01,2013-05-25 10:25:00,
2013-05-25 06:30:00,48.6,48.6,29.74,WNW,288,0.0,2.0,100,0.02,,---,0.18,VWS V14.01,2013-05-25 10:30:00,
2013-05-25 06:35:00,48.8,48.8,29.74,SE,135,0.0,3.0,100,0.02,,---,0.18,VWS V14.01,2013-05-25 10:35:00,
2013-05-25 06:40:00,48.8,48.8,29.74,SE,140,0.0,3.0,100,0.02,,---,0.18,VWS V14.01,2013-05-25 10:40:00,
2013-05-25 06:45:00,48.9,48.9,29.74,SE,140,0.0,0.0,100,0.03,,---,0.19,VWS V14.01,2013-05-25 10:45:00,
2013-05-25 06:50:00,48.9,48.9,29.73,NE,51,0.0,1.0,100,0.03,,---,0.19,VWS V14.01,2013-05-25 10:50:00,
2013-05-25 06:55:00,49.1,49.1,29.74,NE,51,0.0,0.0,100,0.03,,---,0.19,VWS V14.01,2013-05-25 10:55:00,
2013-05-25 07:00:00,49.1,49.1,29.73,SE,144,0.0,1.0,100,0.03,,---,0.19,VWS V14.01,2013-05-25 11:00:00,
2013-05-25 07:05:00,49.1,49.1,29.73,ESE,121,0.0,1.0,100,0.03,,---,0.19,VWS V14.01,2013-05-25 11:05:00,
2013-05-25 07:10:00,49.1,49.1,29.73,WNW,294,0.0,3.0,100,0.03,,---,0.19,VWS V14.01,2013-05-25 11:10:00,
2013-05-25 07:15:00,48.9,48.9,29.73,NE,34,0.0,1.0,100,0.03,,---,0.19,VWS V14.01,2013-05-25 11:15:00,
2013-05-25 07:20:00,49.1,49.1,29.73,NE,34,0.0,1.0,100,0.04,,---,0.20,VWS V14.01,2013-05-25 11:20:00,
2013-05-25 07:25:00,49.2,49.2,29.73,NNE,22,0.0,2.0,100,0.03,,---,0.20,VWS V14.01,2013-05-25 11:25:00,
2013-05-25 07:30:00,49.4,49.4,29.73,West,273,0.0,2.0,100,0.03,,---,0.20,VWS V14.01,2013-05-25 11:30:00,
2013-05-25 07:35:00,49.4,49.4,29.73,NW,317,0.0,0.0,100,0.02,,---,0.20,VWS V14.01,2013-05-25 11:35:00,
2013-05-25 07:40:00,49.5,49.5,29.73,NW,317,0.0,1.0,100,0.02,,---,0.20,VWS V14.01,2013-05-25 11:40:00,
2013-05-25 07:45:00,49.6,49.6,29.72,NW,318,0.0,0.0,100,0.02,,---,0.20,VWS V14.01,2013-05-25 11:45:00,
2013-05-25 07:50:00,49.6,49.6,29.73,West,277,3.0,5.0,100,0.02,,---,0.20,VWS V14.01,2013-05-25 11:50:00,
2013-05-25 07:55:00,49.4,49.4,29.73,ESE,116,0.0,0.0,100,0.01,,---,0.20,VWS V14.01,2013-05-25 11:55:00,
2013-05-25 08:00:00,49.4,49.4,29.73,ESE,116,0.0,0.0,100,0.01,,---,0.20,VWS V14.01,2013-05-25 12:00:00,
2013-05-25 08:05:00,49.4,49.4,29.73,NW,311,0.0,1.0,100,0.01,,---,0.20,VWS V14.01,2013-05-25 12:05:00,
2013-05-25 08:10:00,49.2,49.2,29.73,NNE,28,0.0,3.0,100,0.02,,---,0.21,VWS V14.01,2013-05-25 12:10:00,
2013-05-25 08:15:00,49.2,49.2,29.72,SSE,163,0.0,2.0,100,0.02,,---,0.21,VWS V14.01,2013-05-25 12:15:00,
2013-05-25 08:20:00,49.5,49.5,29.73,SW,215,0.0,2.0,100,0.02,,---,0.21,VWS V14.01,2013-05-25 12:20:00,
2013-05-25 08:25:00,49.4,49.4,29.72,ENE,61,0.0,4.0,100,0.01,,---,0.21,VWS V14.01,2013-05-25 12:25:00,
2013-05-25 08:30:00,49.5,49.5,29.73,ENE,61,0.0,4.0,100,0.01,,---,0.21,VWS V14.01,2013-05-25 12:30:00,
2013-05-25 08:35:00,49.4,49.4,29.73,ENE,69,0.0,2.0,100,0.01,,---,0.21,VWS V14.01,2013-05-25 12:35:00,
2013-05-25 08:40:00,49.4,49.4,29.73,SE,124,0.0,5.0,100,0.02,,---,0.22,VWS V14.01,2013-05-25 12:40:00,
2013-05-25 08:45:00,49.5,49.5,29.72,SE,124,0.0,0.0,100,0.02,,---,0.22,VWS V14.01,2013-05-25 12:45:00,
2013-05-25 08:50:00,49.5,49.5,29.72,ESE,119,0.0,2.0,100,0.02,,---,0.22,VWS V14.01,2013-05-25 12:50:00,
2013-05-25 08:55:00,49.4,49.4,29.72,North,5,0.0,0.0,100,0.02,,---,0.22,VWS V14.01,2013-05-25 12:55:00,
2013-05-25 09:00:00,49.5,49.5,29.72,South,189,0.0,1.0,100,0.02,,---,0.22,VWS V14.01,2013-05-25 13:00:00,
2013-05-25 09:05:00,50.1,50.1,29.72,South,189,0.0,0.0,100,0.02,,---,0.22,VWS V14.01,2013-05-25 13:05:00,
2013-05-25 09:10:00,49.6,49.6,29.72,SSE,154,0.0,6.0,100,0.02,,---,0.22,VWS V14.01,2013-05-25 13:10:00,
2013-05-25 09:15:00,49.8,49.8,29.72,SSE,154,0.0,0.0,100,0.01,,---,0.22,VWS V14.01,2013-05-25 13:15:00,
2013-05-25 09:20:00,49.8,49.8,29.72,ENE,61,0.0,3.0,100,0.01,,---,0.22,VWS V14.01,2013-05-25 13:20:00,
2013-05-25 09:25:00,49.9,49.9,29.72,NE,37,0.0,4.0,100,0.01,,---,0.22,VWS V14.01,2013-05-25 13:25:00,
2013-05-25 09:30:00,49.9,49.9,29.72,WNW,292,0.0,4.0,100,0.01,,---,0.22,VWS V14.01,2013-05-25 13:30:00,
2013-05-25 09:35:00,49.9,49.9,29.72,WSW,250,0.0,2.0,100,0.01,,---,0.22,VWS V14.01,2013-05-25 13:35:00,
2013-05-25 09:40:00,50.1,50.1,29.72,WSW,250,0.0,2.0,100,0.01,,---,0.22,VWS V14.01,2013-05-25 13:40:00,
2013-05-25 09:45:00,50.4,50.4,29.72,South,175,0.0,0.0,100,0.01,,---,0.23,VWS V14.01,2013-05-25 13:45:00,
2013-05-25 09:50:00,50.4,50.4,29.72,South,175,0.0,1.0,100,0.01,,---,0.23,VWS V14.01,2013-05-25 13:50:00,
2013-05-25 09:55:00,50.5,50.5,29.72,South,175,0.0,0.0,100,0.01,,---,0.23,VWS V14.01,2013-05-25 13:55:00,
2013-05-25 10:00:00,50.7,50.7,29.71,ENE,71,1.0,4.0,100,0.01,,---,0.23,VWS V14.01,2013-05-25 14:00:00,
2013-05-25 10:05:00,50.8,50.8,29.71,ENE,78,1.0,3.0,100,0.01,,---,0.23,VWS V14.01,2013-05-25 14:05:00,
2013-05-25 10:10:00,50.8,50.8,29.71,WSW,238,0.0,3.0,100,0.01,,---,0.23,VWS V14.01,2013-05-25 14:10:00,
2013-05-25 10:15:00,50.8,50.8,29.71,East,89,2.0,2.0,100,0.01,,---,0.23,VWS V14.01,2013-05-25 14:15:00,
2013-05-25 10:20:00,50.7,50.7,29.71,ENE,69,3.0,3.0,100,0.01,,---,0.23,VWS V14.01,2013-05-25 14:20:00,
2013-05-25 10:25:00,50.5,50.5,29.71,East,97,0.0,1.0,100,0.01,,---,0.23,VWS V14.01,2013-05-25 14:25:00,
2013-05-25 10:30:00,51.1,51.1,29.71,East,81,0.0,5.0,100,0.02,,---,0.24,VWS V14.01,2013-05-25 14:30:00,
2013-05-25 10:35:00,51.3,51.3,29.70,SW,228,0.0,0.0,100,0.02,,---,0.24,VWS V14.01,2013-05-25 14:35:00,
2013-05-25 10:40:00,51.1,51.1,29.70,NNE,20,0.0,5.0,100,0.02,,---,0.24,VWS V14.01,2013-05-25 14:40:00,
2013-05-25 10:45:00,51.1,51.1,29.70,NE,55,0.0,2.0,100,0.02,,---,0.24,VWS V14.01,2013-05-25 14:45:00,
2013-05-25 10:50:00,51.0,51.0,29.70,West,278,1.0,2.0,100,0.02,,---,0.24,VWS V14.01,2013-05-25 14:50:00,
2013-05-25 10:55:00,51.1,51.1,29.70,ENE,66,0.0,0.0,100,0.01,,---,0.24,VWS V14.01,2013-05-25 14:55:00,
2013-05-25 11:00:00,51.1,51.1,29.69,West,275,0.0,10.0,100,0.01,,---,0.24,VWS V14.01,2013-05-25 15:00:00,
2013-05-25 11:05:00,51.6,51.6,29.69,NE,51,0.0,1.0,100,0.01,,---,0.24,VWS V14.01,2013-05-25 15:05:00,
2013-05-25 11:10:00,51.3,51.3,29.69,ENE,71,0.0,5.0,100,0.01,,---,0.24,VWS V14.01,2013-05-25 15:10:00,
2013-05-25 11:15:00,52.3,52.3,29.69,East,99,0.0,1.0,100,0.01,,---,0.24,VWS V14.01,2013-05-25 15:15:00,
2013-05-25 11:20:00,52.2,52.2,29.69,NW,317,1.0,5.0,100,0.02,,---,0.25,VWS V14.01,2013-05-25 15:20:00,
2013-05-25 11:25:00,51.7,51.7,29.69,NE,39,3.0,3.0,100,0.02,,---,0.25,VWS V14.01,2013-05-25 15:25:00,
2013-05-25 11:30:00,51.9,51.9,29.69,ESE,105,0.0,3.0,100,0.02,,---,0.25,VWS V14.01,2013-05-25 15:30:00,
2013-05-25 11:35:00,52.0,52.0,29.69,NE,46,6.0,6.0,100,0.01,,---,0.25,VWS V14.01,2013-05-25 15:35:00,
2013-05-25 11:40:00,51.6,51.6,29.69,SE,144,0.0,8.0,100,0.01,,---,0.25,VWS V14.01,2013-05-25 15:40:00,
2013-05-25 11:45:00,51.4,51.4,29.69,WNW,300,0.0,3.0,100,0.01,,---,0.25,VWS V14.01,2013-05-25 15:45:00,
2013-05-25 11:50:00,51.3,51.3,29.69,NNE,23,0.0,3.0,100,0.01,,---,0.25,VWS V14.01,2013-05-25 15:50:00,
2013-05-25 11:55:00,51.6,51.6,29.69,East,94,0.0,0.0,100,0.01,,---,0.25,VWS V14.01,2013-05-25 15:55:00,
2013-05-25 12:00:00,51.7,51.7,29.69,NNE,19,0.0,8.0,100,0.01,,---,0.25,VWS V14.01,2013-05-25 16:00:00,
2013-05-25 12:05:00,51.7,51.7,29.68,WNW,291,1.0,2.0,100,0.01,,---,0.25,VWS V14.01,2013-05-25 16:05:00,
2013-05-25 12:10:00,52.0,52.0,29.68,WNW,291,0.0,2.0,100,0.01,,---,0.25,VWS V14.01,2013-05-25 16:10:00,
2013-05-25 12:15:00,52.0,52.0,29.68,SW,231,0.0,1.0,100,0.01,,---,0.25,VWS V14.01,2013-05-25 16:15:00,
2013-05-25 12:20:00,51.6,51.6,29.68,South,178,0.0,3.0,100,0.01,,---,0.25,VWS V14.01,2013-05-25 16:20:00,
2013-05-25 12:25:00,52.0,52.0,29.68,South,190,0.0,3.0,100,0.00,,---,0.25,VWS V14.01,2013-05-25 16:25:00,
2013-05-25 12:30:00,52.0,52.0,29.68,SSE,162,0.0,3.0,100,0.00,,---,0.25,VWS V14.01,2013-05-25 16:30:00,
2013-05-25 12:35:00,52.0,52.0,29.68,NE,44,0.0,3.0,100,0.00,,---,0.25,VWS V14.01,2013-05-25 16:35:00,
2013-05-25 12:40:00,51.9,51.9,29.68,SSW,211,0.0,6.0,100,0.00,,---,0.25,VWS V14.01,2013-05-25 16:40:00,
2013-05-25 12:45:00,52.0,52.0,29.68,NW,311,1.0,7.0,100,0.00,,---,0.25,VWS V14.01,2013-05-25 16:45:00,
2013-05-25 12:50:00,51.3,51.0,29.68,SE,128,0.0,7.0,99,0.00,,---,0.25,VWS V14.01,2013-05-25 16:50:00,
2013-05-25 12:55:00,51.6,51.6,29.68,East,95,0.0,2.0,100,0.00,,---,0.25,VWS V14.01,2013-05-25 16:55:00,
2013-05-25 13:00:00,51.6,51.6,29.68,NNE,31,0.0,2.0,100,0.00,,---,0.25,VWS V14.01,2013-05-25 17:00:00,
2013-05-25 13:05:00,52.0,52.0,29.68,West,275,0.0,0.0,100,0.00,,---,0.25,VWS V14.01,2013-05-25 17:05:00,
2013-05-25 13:10:00,52.8,52.8,29.68,West,275,0.0,1.0,100,0.00,,---,0.25,VWS V14.01,2013-05-25 17:10:00,
2013-05-25 13:15:00,52.8,52.8,29.68,NE,41,0.0,1.0,100,0.01,,---,0.26,VWS V14.01,2013-05-25 17:15:00,
2013-05-25 13:20:00,52.0,52.0,29.68,SW,234,0.0,3.0,100,0.01,,---,0.26,VWS V14.01,2013-05-25 17:20:00,
2013-05-25 13:25:00,51.9,51.9,29.68,SE,130,0.0,0.0,100,0.01,,---,0.26,VWS V14.01,2013-05-25 17:25:00,
2013-05-25 13:30:00,51.9,51.6,29.68,ENE,61,0.0,1.0,99,0.01,,---,0.26,VWS V14.01,2013-05-25 17:30:00,
2013-05-25 13:35:00,51.7,51.4,29.68,WNW,294,1.0,2.0,99,0.01,,---,0.26,VWS V14.01,2013-05-25 17:35:00,
2013-05-25 13:40:00,51.7,51.7,29.68,East,84,0.0,3.0,100,0.02,,---,0.27,VWS V14.01,2013-05-25 17:40:00,
2013-05-25 13:45:00,52.2,52.2,29.68,East,84,0.0,0.0,100,0.02,,---,0.27,VWS V14.01,2013-05-25 17:45:00,
2013-05-25 13:50:00,52.2,52.2,29.67,ENE,73,0.0,4.0,100,0.02,,---,0.27,VWS V14.01,2013-05-25 17:50:00,
2013-05-25 13:55:00,52.2,52.2,29.67,WSW,248,0.0,2.0,100,0.02,,---,0.27,VWS V14.01,2013-05-25 17:55:00,
2013-05-25 14:00:00,52.3,52.3,29.67,SW,216,0.0,2.0,100,0.02,,---,0.27,VWS V14.01,2013-05-25 18:00:00,
2013-05-25 14:05:00,52.5,52.5,29.67,SW,221,0.0,0.0,100,0.02,,---,0.27,VWS V14.01,2013-05-25 18:05:00,
2013-05-25 14:10:00,52.3,52.3,29.67,ENE,78,2.0,3.0,100,0.02,,---,0.27,VWS V14.01,2013-05-25 18:10:00,
2013-05-25 14:15:00,52.3,52.3,29.67,East,96,0.0,1.0,100,0.02,,---,0.27,VWS V14.01,2013-05-25 18:15:00,
2013-05-25 14:20:00,52.3,52.0,29.68,SSW,200,0.0,3.0,99,0.02,,---,0.27,VWS V14.01,2013-05-25 18:20:00,
2013-05-25 14:25:00,52.5,52.5,29.68,ENE,65,0.0,0.0,100,0.02,,---,0.28,VWS V14.01,2013-05-25 18:25:00,
2013-05-25 14:30:00,52.5,52.5,29.67,NE,40,0.0,1.0,100,0.02,,---,0.28,VWS V14.01,2013-05-25 18:30:00,
2013-05-25 14:35:00,52.6,52.6,29.67,West,265,0.0,0.0,100,0.02,,---,0.28,VWS V14.01,2013-05-25 18:35:00,
2013-05-25 14:40:00,52.5,52.5,29.67,East,95,0.0,3.0,100,0.02,,---,0.28,VWS V14.01,2013-05-25 18:40:00,
2013-05-25 14:45:00,52.3,52.0,29.67,SE,135,0.0,1.0,99,0.02,,---,0.29,VWS V14.01,2013-05-25 18:45:00,
2013-05-25 14:50:00,52.3,52.3,29.67,SE,143,0.0,1.0,100,0.02,,---,0.29,VWS V14.01,2013-05-25 18:50:00,
2013-05-25 14:55:00,52.5,52.5,29.67,North,355,0.0,0.0,100,0.03,,---,0.30,VWS V14.01,2013-05-25 18:55:00,
2013-05-25 15:00:00,52.3,52.3,29.67,South,180,0.0,4.0,100,0.03,,---,0.30,VWS V14.01,2013-05-25 19:00:00,
2013-05-25 15:05:00,52.3,52.3,29.67,SSE,154,0.0,0.0,100,0.04,,---,0.31,VWS V14.01,2013-05-25 19:05:00,
2013-05-25 15:10:00,52.0,52.0,29.67,NW,320,0.0,5.0,100,0.04,,---,0.31,VWS V14.01,2013-05-25 19:10:00,
2013-05-25 15:15:00,52.2,52.2,29.66,WSW,251,3.0,3.0,100,0.04,,---,0.31,VWS V14.01,2013-05-25 19:15:00,
2013-05-25 15:20:00,52.2,52.2,29.66,SSE,167,0.0,3.0,100,0.05,,---,0.32,VWS V14.01,2013-05-25 19:20:00,
2013-05-25 15:25:00,52.2,52.2,29.66,West,279,3.0,3.0,100,0.04,,---,0.32,VWS V14.01,2013-05-25 19:25:00,
2013-05-25 15:30:00,51.9,51.9,29.66,SSE,148,0.0,3.0,100,0.04,,---,0.32,VWS V14.01,2013-05-25 19:30:00,
2013-05-25 15:35:00,52.0,52.0,29.66,WSW,246,0.0,1.0,100,0.05,,---,0.33,VWS V14.01,2013-05-25 19:35:00,
2013-05-25 15:40:00,51.9,51.9,29.66,SE,136,0.0,2.0,100,0.05,,---,0.33,VWS V14.01,2013-05-25 19:40:00,
2013-05-25 15:45:00,51.9,51.9,29.66,SW,234,0.0,1.0,100,0.04,,---,0.33,VWS V14.01,2013-05-25 19:45:00,
2013-05-25 15:50:00,51.9,51.9,29.66,East,98,0.0,3.0,100,0.05,,---,0.34,VWS V14.01,2013-05-25 19:50:00,
2013-05-25 15:55:00,51.7,51.7,29.66,South,182,0.0,2.0,100,0.05,,---,0.34,VWS V14.01,2013-05-25 19:55:00,
2013-05-25 16:00:00,51.7,51.7,29.66,South,182,0.0,2.0,100,0.06,,---,0.35,VWS V14.01,2013-05-25 20:00:00,
2013-05-25 16:05:00,51.7,51.7,29.66,ESE,119,2.0,2.0,100,0.04,,---,0.35,VWS V14.01,2013-05-25 20:05:00,
2013-05-25 16:10:00,51.6,51.6,29.66,South,188,0.0,3.0,100,0.04,,---,0.35,VWS V14.01,2013-05-25 20:10:00,
2013-05-25 16:15:00,51.4,51.4,29.66,ENE,57,0.0,1.0,100,0.04,,---,0.35,VWS V14.01,2013-05-25 20:15:00,
2013-05-25 16:20:00,51.4,51.4,29.66,SSW,202,1.0,1.0,100,0.05,,---,0.36,VWS V14.01,2013-05-25 20:20:00,
2013-05-25 16:25:00,51.4,51.4,29.66,SE,139,0.0,3.0,100,0.04,,---,0.36,VWS V14.01,2013-05-25 20:25:00,
2013-05-25 16:30:00,51.3,51.3,29.66,SW,225,0.0,5.0,100,0.05,,---,0.37,VWS V14.01,2013-05-25 20:30:00,
2013-05-25 16:35:00,51.3,51.3,29.66,North,355,1.0,1.0,100,0.04,,---,0.37,VWS V14.01,2013-05-25 20:35:00,
2013-05-25 16:40:00,51.4,51.4,29.66,West,269,1.0,2.0,100,0.05,,---,0.38,VWS V14.01,2013-05-25 20:40:00,
2013-05-25 16:45:00,51.3,51.3,29.66,West,267,0.0,1.0,100,0.06,,---,0.39,VWS V14.01,2013-05-25 20:45:00,
2013-05-25 16:50:00,51.0,51.0,29.66,SSW,205,0.0,6.0,100,0.06,,---,0.39,VWS V14.01,2013-05-25 20:50:00,
2013-05-25 16:55:00,50.7,50.7,29.66,NNE,32,0.0,2.0,100,0.06,,---,0.40,VWS V14.01,2013-05-25 20:55:00,
2013-05-25 17:00:00,50.2,49.9,29.66,South,176,0.0,6.0,99,0.06,,---,0.40,VWS V14.01,2013-05-25 21:00:00,
2013-05-25 17:05:00,49.5,49.2,29.66,SW,235,3.0,3.0,99,0.07,,---,0.42,VWS V14.01,2013-05-25 21:05:00,
2013-05-25 17:10:00,49.2,48.9,29.66,WSW,249,0.0,7.0,99,0.08,,---,0.43,VWS V14.01,2013-05-25 21:10:00,
2013-05-25 17:15:00,48.9,48.6,29.67,West,275,0.0,2.0,99,0.09,,---,0.44,VWS V14.01,2013-05-25 21:15:00,
2013-05-25 17:20:00,48.8,48.8,29.67,West,261,0.0,3.0,100,0.09,,---,0.44,VWS V14.01,2013-05-25 21:20:00,
2013-05-25 17:25:00,48.3,48.0,29.67,SSE,157,0.0,1.0,99,0.09,,---,0.45,VWS V14.01,2013-05-25 21:25:00,
2013-05-25 17:30:00,48.2,47.9,29.67,SW,229,0.0,3.0,99,0.09,,---,0.45,VWS V14.01,2013-05-25 21:30:00,
2013-05-25 17:35:00,48.2,48.2,29.67,South,188,0.0,4.0,100,0.09,,---,0.46,VWS V14.01,2013-05-25 21:35:00,
2013-05-25 17:39:00,48.0,48.0,29.67,SSW,205,0.0,4.0,100,0.09,,---,0.46,VWS V14.01,2013-05-25 21:39:00,
2013-05-25 17:44:00,48.2,48.2,29.67,SW,234,1.0,2.0,100,0.07,,---,0.46,VWS V14.01,2013-05-25 21:44:00,
2013-05-25 17:49:00,48.2,48.2,29.67,SE,138,0.0,3.0,100,0.07,,---,0.46,VWS V14.01,2013-05-25 21:49:00,
2013-05-25 17:54:00,48.2,48.2,29.67,WNW,297,3.0,3.0,100,0.07,,---,0.47,VWS V14.01,2013-05-25 21:54:00,
2013-05-25 17:59:00,47.9,47.9,29.67,West,275,0.0,6.0,100,0.07,,---,0.47,VWS V14.01,2013-05-25 21:59:00,
2013-05-25 18:04:00,47.7,47.7,29.67,SW,219,3.0,3.0,100,0.06,,---,0.48,VWS V14.01,2013-05-25 22:04:00,
2013-05-25 18:09:00,47.7,47.7,29.67,SW,219,0.0,4.0,100,0.06,,---,0.48,VWS V14.01,2013-05-25 22:09:00,
2013-05-25 18:14:00,47.7,47.7,29.67,SW,221,0.0,0.0,100,0.04,,---,0.48,VWS V14.01,2013-05-25 22:14:00,
2013-05-25 18:19:00,47.7,47.7,29.67,SSE,167,0.0,3.0,100,0.04,,---,0.48,VWS V14.01,2013-05-25 22:19:00,
2013-05-25 18:24:00,47.6,47.6,29.67,WSW,239,0.0,0.0,100,0.03,,---,0.48,VWS V14.01,2013-05-25 22:24:00,
2013-05-25 18:29:00,47.6,47.6,29.67,SW,227,0.0,5.0,100,0.04,,---,0.49,VWS V14.01,2013-05-25 22:29:00,
2013-05-25 18:34:00,47.3,47.3,29.68,SW,215,0.0,2.0,100,0.04,,---,0.49,VWS V14.01,2013-05-25 22:34:00,
2013-05-25 18:39:00,46.7,46.4,29.68,SSW,197,3.0,6.0,99,0.04,,---,0.49,VWS V14.01,2013-05-25 22:39:00,
2013-05-25 18:44:00,46.2,45.9,29.68,West,263,1.0,2.0,99,0.03,,---,0.49,VWS V14.01,2013-05-25 22:44:00,
2013-05-25 18:49:00,46.1,45.8,29.68,WSW,257,0.0,7.0,99,0.03,,---,0.49,VWS V14.01,2013-05-25 22:49:00,
2013-05-25 18:54:00,46.0,46.0,29.68,WSW,249,2.0,2.0,100,0.03,,---,0.50,VWS V14.01,2013-05-25 22:54:00,
2013-05-25 18:59:00,45.8,45.5,29.68,WSW,237,0.0,3.0,99,0.03,,---,0.50,VWS V14.01,2013-05-25 22:59:00,
2013-05-25 19:04:00,45.5,45.2,29.68,SSE,156,0.0,2.0,99,0.03,,---,0.50,VWS V14.01,2013-05-25 23:04:00,
2013-05-25 19:09:00,45.2,44.9,29.68,SSW,212,0.0,7.0,99,0.03,,---,0.50,VWS V14.01,2013-05-25 23:09:00,
2013-05-25 19:14:00,45.1,45.1,29.68,South,182,0.0,0.0,100,0.02,,---,0.50,VWS V14.01,2013-05-25 23:14:00,
2013-05-25 19:19:00,45.1,45.1,29.68,WSW,240,0.0,3.0,100,0.03,,---,0.51,VWS V14.01,2013-05-25 23:19:00,
2013-05-25 19:24:00,45.1,45.1,29.68,SW,223,0.0,2.0,100,0.03,,---,0.51,VWS V14.01,2013-05-25 23:24:00,
2013-05-25 19:29:00,44.9,44.9,29.68,SSW,204,0.0,5.0,100,0.03,,---,0.51,VWS V14.01,2013-05-25 23:29:00,
2013-05-25 19:34:00,44.8,44.8,29.68,SSW,205,0.0,0.0,100,0.02,,---,0.51,VWS V14.01,2013-05-25 23:34:00,
2013-05-25 19:39:00,44.6,44.6,29.68,South,169,0.0,4.0,100,0.02,,---,0.51,VWS V14.01,2013-05-25 23:39:00,
2013-05-25 19:44:00,44.5,44.5,29.69,WSW,248,1.0,1.0,100,0.02,,---,0.51,VWS V14.01,2013-05-25 23:44:00,
2013-05-25 19:49:00,44.3,44.3,29.69,South,174,0.0,9.0,100,0.02,,---,0.51,VWS V14.01,2013-05-25 23:49:00,
2013-05-25 19:54:00,44.6,44.6,29.69,SSW,205,0.0,5.0,100,0.02,,---,0.51,VWS V14.01,2013-05-25 23:54:00,
2013-05-25 19:59:00,44.1,44.1,29.69,WNW,296,0.0,5.0,100,0.02,,---,0.51,VWS V14.01,2013-05-25 23:59:00,
2013-05-25 20:04:00,44.1,44.1,29.69,WSW,255,3.0,4.0,100,0.01,,---,0.51,VWS V14.01,2013-05-26 00:04:00,
2013-05-25 20:09:00,43.9,43.9,29.69,SW,230,0.0,4.0,100,0.01,,---,0.51,VWS V14.01,2013-05-26 00:09:00,
2013-05-25 20:14:00,43.9,43.9,29.69,WSW,248,0.0,3.0,100,0.01,,---,0.51,VWS V14.01,2013-05-26 00:14:00,
2013-05-25 20:19:00,43.8,43.8,29.68,SW,219,0.0,7.0,100,0.01,,---,0.51,VWS V14.01,2013-05-26 00:19:00,
2013-05-25 20:24:00,43.8,43.8,29.68,SW,221,1.0,4.0,100,0.00,,---,0.51,VWS V14.01,2013-05-26 00:24:00,
2013-05-25 20:29:00,43.6,43.6,29.68,SW,224,0.0,4.0,100,0.00,,---,0.51,VWS V14.01,2013-05-26 00:29:00,
2013-05-25 20:34:00,43.6,43.6,29.69,WSW,241,0.0,1.0,100,0.00,,---,0.51,VWS V14.01,2013-05-26 00:34:00,
2013-05-25 20:39:00,43.5,43.5,29.69,SW,233,0.0,6.0,100,0.00,,---,0.51,VWS V14.01,2013-05-26 00:39:00,
2013-05-25 20:44:00,43.5,43.5,29.69,SW,229,2.0,2.0,100,0.00,,---,0.51,VWS V14.01,2013-05-26 00:44:00,
2013-05-25 20:49:00,43.3,43.0,29.69,SW,234,1.0,8.0,99,0.00,,---,0.51,VWS V14.01,2013-05-26 00:49:00,
2013-05-25 20:54:00,43.5,43.5,29.69,SW,234,1.0,1.0,100,0.00,,---,0.51,VWS V14.01,2013-05-26 00:54:00,
2013-05-25 20:59:00,43.3,43.0,29.69,SW,232,0.0,5.0,99,0.00,,---,0.51,VWS V14.01,2013-05-26 00:59:00,
2013-05-25 21:04:00,43.3,43.0,29.68,WSW,257,1.0,1.0,99,0.00,,---,0.51,VWS V14.01,2013-05-26 01:04:00,
2013-05-25 21:09:00,43.3,43.0,29.68,SW,233,1.0,5.0,99,0.00,,---,0.51,VWS V14.01,2013-05-26 01:09:00,
2013-05-25 21:14:00,43.3,43.0,29.68,West,274,0.0,0.0,99,0.00,,---,0.51,VWS V14.01,2013-05-26 01:14:00,
2013-05-25 21:19:00,43.2,42.9,29.68,West,264,0.0,5.0,99,0.00,,---,0.51,VWS V14.01,2013-05-26 01:19:00,
2013-05-25 21:24:00,43.2,42.9,29.68,SE,138,4.0,6.0,99,0.00,,---,0.51,VWS V14.01,2013-05-26 01:24:00,
2013-05-25 21:29:00,43.1,42.8,29.68,SSW,213,0.0,6.0,99,0.00,,---,0.51,VWS V14.01,2013-05-26 01:29:00,
2013-05-25 21:34:00,43.1,42.6,29.68,WSW,247,2.0,5.0,98,0.00,,---,0.51,VWS V14.01,2013-05-26 01:34:00,
2013-05-25 21:39:00,43.1,42.6,29.68,SW,236,0.0,5.0,98,0.00,,---,0.51,VWS V14.01,2013-05-26 01:39:00,
2013-05-25 21:44:00,43.1,42.6,29.68,SW,233,0.0,2.0,98,0.00,,---,0.51,VWS V14.01,2013-05-26 01:44:00,
2013-05-25 21:49:00,43.1,42.6,29.68,South,173,0.0,4.0,98,0.00,,---,0.51,VWS V14.01,2013-05-26 01:49:00,
2013-05-25 21:54:00,43.1,42.3,29.68,SW,236,0.0,0.0,97,0.00,,---,0.51,VWS V14.01,2013-05-26 01:54:00,
2013-05-25 21:59:00,42.9,42.1,29.68,SSW,205,0.0,3.0,97,0.00,,---,0.51,VWS V14.01,2013-05-26 01:59:00,
2013-05-25 22:04:00,42.9,42.1,29.68,SSW,196,0.0,3.0,97,0.00,,---,0.51,VWS V14.01,2013-05-26 02:04:00,
2013-05-25 22:09:00,42.9,41.8,29.68,SW,224,2.0,5.0,96,0.00,,---,0.51,VWS V14.01,2013-05-26 02:09:00,
2013-05-25 22:14:00,42.8,41.7,29.68,SSW,205,1.0,4.0,96,0.00,,---,0.51,VWS V14.01,2013-05-26 02:14:00,
2013-05-25 22:19:00,42.8,41.5,29.68,SW,226,3.0,4.0,95,0.00,,---,0.51,VWS V14.01,2013-05-26 02:19:00,
2013-05-25 22:24:00,42.8,41.5,29.68,SSW,205,0.0,2.0,95,0.00,,---,0.51,VWS V14.01,2013-05-26 02:24:00,
2013-05-25 22:29:00,42.8,41.2,29.68,WSW,251,0.0,4.0,94,0.00,,---,0.51,VWS V14.01,2013-05-26 02:29:00,
2013-05-25 22:34:00,42.8,41.2,29.68,SSW,205,4.0,4.0,94,0.00,,---,0.51,VWS V14.01,2013-05-26 02:34:00,
2013-05-25 22:39:00,42.6,41.0,29.68,West,260,0.0,6.0,94,0.00,,---,0.51,VWS V14.01,2013-05-26 02:39:00,
2013-05-25 22:44:00,42.6,40.7,29.68,SW,235,3.0,6.0,93,0.00,,---,0.51,VWS V14.01,2013-05-26 02:44:00,
2013-05-25 22:49:00,42.6,40.4,29.68,SSW,203,2.0,6.0,92,0.00,,---,0.51,VWS V14.01,2013-05-26 02:49:00,
2013-05-25 22:54:00,42.5,40.3,29.68,WSW,238,1.0,1.0,92,0.00,,---,0.51,VWS V14.01,2013-05-26 02:54:00,
2013-05-25 22:59:00,42.6,40.4,29.68,WSW,250,0.0,3.0,92,0.00,,---,0.51,VWS V14.01,2013-05-26 02:59:00,
2013-05-25 23:04:00,42.5,40.3,29.68,WSW,238,0.0,2.0,92,0.00,,---,0.51,VWS V14.01,2013-05-26 03:04:00,
2013-05-25 23:09:00,42.3,40.2,29.68,NW,313,0.0,3.0,92,0.00,,---,0.51,VWS V14.01,2013-05-26 03:09:00,
2013-05-25 23:14:00,42.8,40.4,29.68,West,272,3.0,5.0,91,0.00,,---,0.51,VWS V14.01,2013-05-26 03:14:00,
2013-05-25 23:19:00,42.2,39.8,29.68,SW,232,2.0,10.0,91,0.00,,---,0.51,VWS V14.01,2013-05-26 03:19:00,
2013-05-25 23:24:00,42.1,39.7,29.69,SW,219,3.0,3.0,91,0.00,,---,0.51,VWS V14.01,2013-05-26 03:24:00,
2013-05-25 23:29:00,42.1,39.4,29.68,SW,222,0.0,7.0,90,0.00,,---,0.51,VWS V14.01,2013-05-26 03:29:00,
2013-05-25 23:34:00,41.9,38.9,29.68,SW,229,0.0,0.0,89,0.00,,---,0.51,VWS V14.01,2013-05-26 03:34:00,
2013-05-25 23:39:00,41.9,39.2,29.69,SW,232,0.0,6.0,90,0.00,,---,0.51,VWS V14.01,2013-05-26 03:39:00,
2013-05-25 23:44:00,41.8,38.8,29.69,WSW,244,0.0,2.0,89,0.00,,---,0.51,VWS V14.01,2013-05-26 03:44:00,
2013-05-25 23:49:00,41.5,38.5,29.69,South,186,1.0,6.0,89,0.00,,---,0.51,VWS V14.01,2013-05-26 03:49:00,
2013-05-25 23:54:00,41.5,38.5,29.69,WNW,292,0.0,4.0,89,0.00,,---,0.51,VWS V14.01,2013-05-26 03:54:00,
2013-05-25 23:59:00,41.5,38.5,29.69,West,263,1.0,4.0,89,0.00,,---,0.51,VWS V14.01,2013-05-26 03:59:00,